TimeEDT,TemperatureF,Dew PointF,Humidity,Sea Level PressureIn,VisibilityMPH,Wind Direction,Wind SpeedMPH,Gust SpeedMPH,PrecipitationIn,Events,Conditions,WindDirDegrees,DateUTC
12:15 AM,70.0,67.1,91,29.69,10.0,Calm,Calm,-,N/A,,Clear,0,2013-06-28 04:15:00
12:34 AM,69.8,66.6,89,29.69,10.0,WNW,4.6,-,N/A,,Clear,290,2013-06-28 04:34:00
12:55 AM,69.8,66.9,91,29.68,10.0,West,4.6,-,N/A,,Scattered Clouds,280,2013-06-28 04:55:00
1:14 AM,68.4,65.7,91,29.68,7.0,West,3.5,-,N/A,,Clear,260,2013-06-28 05:14:00
1:35 AM,68.0,65.3,91,29.68,10.0,Calm,Calm,-,N/A,,Clear,0,2013-06-28 05:35:00
1:55 AM,68.0,64.8,89,29.67,10.0,Calm,Calm,-,N/A,,Clear,0,2013-06-28 05:55:00
2:34 AM,66.9,63.5,89,29.67,10.0,Calm,Calm,-,N/A,,Clear,0,2013-06-28 06:34:00
2:55 AM,66.2,62.8,89,29.67,10.0,Calm,Calm,-,N/A,,Clear,0,2013-06-28 06:55:00
3:14 AM,65.3,62.6,91,29.67,10.0,Calm,Calm,-,N/A,,Clear,0,2013-06-28 07:14:00
3:35 AM,64.9,62.2,91,29.67,10.0,Calm,Calm,-,N/A,,Clear,0,2013-06-28 07:35:00
3:55 AM,65.3,63.0,92,29.66,10.0,Calm,Calm,-,N/A,,Clear,0,2013-06-28 07:55:00
4:14 AM,64.9,62.4,92,29.66,10.0,Calm,Calm,-,N/A,,Clear,0,2013-06-28 08:14:00
4:35 AM,63.9,61.9,93,29.66,7.0,Calm,Calm,-,N/A,,Clear,0,2013-06-28 08:35:00
4:55 AM,62.6,60.8,94,29.65,7.0,Calm,Calm,-,N/A,,Clear,0,2013-06-28 08:55:00
5:14 AM,63.0,61.3,94,29.65,7.0,Calm,Calm,-,N/A,,Clear,0,2013-06-28 09:14:00
5:35 AM,63.5,62.1,95,29.65,7.0,Calm,Calm,-,N/A,,Clear,0,2013-06-28 09:35:00
5:55 AM,63.1,61.7,95,29.66,5.0,Calm,Calm,-,N/A,,Scattered Clouds,0,2013-06-28 09:55:00
6:14 AM,62.6,61.0,94,29.66,7.0,Calm,Calm,-,N/A,,Scattered Clouds,0,2013-06-28 10:14:00
6:35 AM,64.4,63.0,95,29.65,5.0,WNW,4.6,-,N/A,,Overcast,290,2013-06-28 10:35:00
6:54 AM,64.9,63.5,95,29.65,3.0,NW,4.6,-,N/A,,Overcast,310,2013-06-28 10:54:00
7:14 AM,65.3,63.7,94,29.66,3.0,NW,4.6,-,N/A,,Overcast,310,2013-06-28 11:14:00
7:35 AM,65.5,63.7,94,29.66,3.0,NW,4.6,-,N/A,,Overcast,310,2013-06-28 11:35:00
7:54 AM,66.0,64.2,94,29.65,4.0,NW,5.8,-,N/A,,Overcast,310,2013-06-28 11:54:00
8:15 AM,67.5,64.8,91,29.65,5.0,West,6.9,-,N/A,,Scattered Clouds,280,2013-06-28 12:15:00
8:35 AM,68.4,64.6,88,29.66,7.0,West,8.1,-,N/A,,Clear,280,2013-06-28 12:35:00
8:54 AM,69.8,64.8,84,29.66,10.0,West,6.9,-,N/A,,Clear,270,2013-06-28 12:54:00
9:15 AM,70.7,63.9,79,29.66,10.0,NW,11.5,-,N/A,,Clear,310,2013-06-28 13:15:00
9:35 AM,71.2,63.3,76,29.66,10.0,WNW,9.2,-,N/A,,Clear,290,2013-06-28 13:35:00
9:54 AM,72.3,64.6,77,29.65,10.0,West,8.1,-,N/A,,Clear,280,2013-06-28 13:54:00
10:15 AM,73.4,64.0,72,29.65,10.0,WNW,9.2,-,N/A,,Clear,290,2013-06-28 14:15:00
10:35 AM,73.4,63.1,70,29.65,10.0,NW,9.2,16.1,N/A,,Clear,310,2013-06-28 14:35:00
10:54 AM,74.3,64.4,71,29.65,10.0,WNW,9.2,-,N/A,,Clear,300,2013-06-28 14:54:00
11:15 AM,74.8,64.0,69,29.65,10.0,West,10.4,-,N/A,,Clear,280,2013-06-28 15:15:00
11:35 AM,75.6,63.7,66,29.65,10.0,WNW,8.1,-,N/A,,Scattered Clouds,290,2013-06-28 15:35:00
11:54 AM,76.1,63.9,66,29.64,10.0,West,10.4,-,N/A,,Scattered Clouds,280,2013-06-28 15:54:00
12:15 PM,77.0,63.9,64,29.64,10.0,WNW,8.1,-,N/A,,Scattered Clouds,300,2013-06-28 16:15:00
12:34 PM,77.0,63.7,63,29.64,10.0,West,10.4,-,N/A,,Scattered Clouds,280,2013-06-28 16:34:00
12:55 PM,76.5,64.4,66,29.63,10.0,West,11.5,-,N/A,,Clear,280,2013-06-28 16:55:00
1:15 PM,77.2,64.6,65,29.63,10.0,WNW,12.7,18.4,N/A,,Scattered Clouds,290,2013-06-28 17:15:00
1:34 PM,76.6,63.7,64,29.63,10.0,West,12.7,17.3,N/A,,Scattered Clouds,270,2013-06-28 17:34:00
1:55 PM,77.5,63.9,63,29.62,10.0,West,12.7,17.3,N/A,,Clear,280,2013-06-28 17:55:00
2:15 PM,77.7,64.9,65,29.62,7.0,West,13.8,19.6,N/A,,Scattered Clouds,270,2013-06-28 18:15:00
2:34 PM,77.4,64.2,64,29.61,10.0,West,13.8,18.4,N/A,,Scattered Clouds,270,2013-06-28 18:34:00
2:55 PM,77.2,64.4,65,29.61,10.0,West,15.0,20.7,N/A,,Clear,280,2013-06-28 18:55:00
3:14 PM,76.3,63.3,64,29.61,10.0,West,18.4,23.0,N/A,,Scattered Clouds,280,2013-06-28 19:14:00
3:35 PM,76.3,64.8,67,29.60,10.0,WNW,15.0,21.9,N/A,,Scattered Clouds,290,2013-06-28 19:35:00
3:54 PM,75.9,63.3,65,29.60,10.0,WNW,13.8,23.0,N/A,,Scattered Clouds,300,2013-06-28 19:54:00
4:15 PM,75.2,61.5,62,29.60,10.0,WNW,15.0,21.9,N/A,,Scattered Clouds,290,2013-06-28 20:15:00
4:35 PM,74.8,60.8,62,29.60,10.0,NW,15.0,-,N/A,,Clear,310,2013-06-28 20:35:00
4:54 PM,75.7,60.6,59,29.60,10.0,WNW,15.0,19.6,N/A,,Clear,300,2013-06-28 20:54:00
5:15 PM,75.6,60.6,60,29.59,10.0,WNW,13.8,21.9,N/A,,Clear,300,2013-06-28 21:15:00
5:35 PM,75.7,59.7,57,29.59,10.0,NW,11.5,-,N/A,,Clear,310,2013-06-28 21:35:00
5:54 PM,75.4,58.8,56,29.59,10.0,WNW,15.0,23.0,N/A,,Clear,300,2013-06-28 21:54:00
6:15 PM,75.0,58.5,56,29.60,10.0,NW,13.8,21.9,N/A,,Clear,310,2013-06-28 22:15:00
6:35 PM,75.6,59.2,57,29.61,10.0,WNW,13.8,19.6,N/A,,Scattered Clouds,300,2013-06-28 22:35:00
6:54 PM,75.2,58.6,56,29.61,10.0,NW,11.5,20.7,N/A,,Scattered Clouds,320,2013-06-28 22:54:00
7:15 PM,75.4,59.0,57,29.60,10.0,NW,9.2,-,N/A,,Scattered Clouds,310,2013-06-28 23:15:00
7:35 PM,74.3,58.6,58,29.60,10.0,NNW,10.4,-,N/A,,Scattered Clouds,330,2013-06-28 23:35:00
7:54 PM,74.1,59.5,60,29.61,10.0,NW,5.8,-,N/A,,Clear,320,2013-06-28 23:54:00
8:15 PM,73.6,58.8,60,29.61,10.0,NW,6.9,-,N/A,,Clear,310,2013-06-29 00:15:00
8:35 PM,72.9,59.5,63,29.61,10.0,NW,5.8,-,N/A,,Clear,320,2013-06-29 00:35:00
8:54 PM,72.0,60.3,67,29.61,10.0,NW,3.5,-,N/A,,Clear,310,2013-06-29 00:54:00
9:15 PM,70.9,59.9,68,29.61,10.0,Calm,Calm,-,N/A,,Clear,0,2013-06-29 01:15:00
9:35 PM,68.2,60.3,76,29.61,10.0,Calm,Calm,-,N/A,,Clear,0,2013-06-29 01:35:00
9:54 PM,67.5,60.3,78,29.60,10.0,Calm,Calm,-,N/A,,Clear,0,2013-06-29 01:54:00
10:15 PM,67.1,60.6,80,29.61,10.0,Calm,Calm,-,N/A,,Clear,0,2013-06-29 02:15:00
10:35 PM,65.8,60.8,84,29.61,10.0,West,3.5,-,N/A,,Clear,280,2013-06-29 02:35:00
10:54 PM,65.3,60.8,85,29.61,10.0,Calm,Calm,-,N/A,,Clear,0,2013-06-29 02:54:00
11:15 PM,64.8,60.3,85,29.61,10.0,Calm,Calm,-,N/A,,Clear,0,2013-06-29 03:15:00
11:35 PM,65.3,60.8,85,29.60,10.0,Calm,Calm,-,N/A,,Clear,0,2013-06-29 03:35:00
11:54 PM,64.8,60.3,85,29.61,10.0,Calm,Calm,-,N/A,,Clear,0,2013-06-29 03:54:00